Date,Time[GMT],Depth[m],Alt[m],T90[oC],Turb[FTU],Sal[psu]
22-Jun-2004,21:04:59,1.0,0.0,29.5532,0.0000,0.0152
22-Jun-2004,21:05:00,0.4,0.0,29.5551,0.0000,0.0152
22-Jun-2004,21:05:01,-0.3,0.0,29.5320,0.0000,0.0151
22-Jun-2004,21:05:02,0.4,0.0,29.5165,0.0000,0.0152
22-Jun-2004,21:05:03,-0.3,0.0,29.5286,0.0000,0.0151
22-Jun-2004,21:05:04,-0.3,0.0,29.5866,0.0000,0.0151
22-Jun-2004,21:05:05,0.4,0.0,29.5874,0.0000,0.0152
22-Jun-2004,21:05:06,0.4,0.0,29.5770,0.0000,0.0152
22-Jun-2004,21:05:07,0.4,0.0,29.5678,0.0000,0.0152
22-Jun-2004,21:05:08,-0.3,0.0,29.5784,0.0000,0.0152
22-Jun-2004,21:05:09,0.4,0.0,29.5819,0.0000,0.0152
22-Jun-2004,21:05:10,0.4,0.0,29.5869,0.0000,0.0152
22-Jun-2004,21:05:11,0.4,0.0,29.6092,0.0000,0.0152
22-Jun-2004,21:05:12,0.4,0.0,29.6210,0.0000,0.0152
22-Jun-2004,21:05:13,1.0,0.0,29.6604,0.0000,0.0152
22-Jun-2004,21:05:14,-0.3,0.0,29.6555,0.0000,0.0152
22-Jun-2004,21:05:15,-0.3,0.0,29.6587,0.0000,0.0152
22-Jun-2004,21:05:16,0.4,0.0,29.6805,0.0000,0.0152
22-Jun-2004,21:05:17,-0.3,0.0,29.6887,0.0000,0.0153
22-Jun-2004,21:05:18,0.4,0.0,29.6360,0.0000,0.0152
22-Jun-2004,21:05:19,0.4,0.0,29.6632,0.0000,0.0153
22-Jun-2004,21:05:20,0.4,0.0,29.7311,0.0000,0.0154
22-Jun-2004,21:05:21,0.4,0.0,29.7330,0.0000,0.0153
22-Jun-2004,21:05:22,1.0,0.0,29.6963,0.0000,0.0156
22-Jun-2004,21:05:23,-0.3,0.0,29.7228,0.0000,0.0155
22-Jun-2004,21:05:24,0.4,0.0,29.7856,0.0000,0.0154
22-Jun-2004,21:05:25,-0.3,0.0,29.7782,0.0000,0.0153
22-Jun-2004,21:05:26,-0.3,0.0,29.8030,0.0000,0.0153
22-Jun-2004,21:05:27,-0.3,0.0,29.7858,0.0000,0.0154
22-Jun-2004,21:05:28,0.4,0.0,29.7657,0.0000,0.0153
22-Jun-2004,21:05:29,-0.3,0.0,29.8026,0.0000,0.0153
22-Jun-2004,21:05:30,0.4,0.0,29.8343,0.0000,0.0153
22-Jun-2004,21:05:31,0.4,0.0,29.8799,0.0000,0.0153
22-Jun-2004,21:05:32,-0.3,0.0,29.8334,0.0000,0.0153
22-Jun-2004,21:05:33,1.0,0.0,29.7164,0.0000,0.0153
22-Jun-2004,21:05:34,-0.3,0.0,29.6540,0.0000,0.0153
22-Jun-2004,21:05:35,0.4,0.0,29.6217,0.0000,0.0153
22-Jun-2004,21:05:36,-0.3,0.0,29.5233,0.0000,0.0152
22-Jun-2004,21:05:37,0.4,0.0,29.3989,0.0000,0.0152
22-Jun-2004,21:05:38,0.4,0.0,29.2276,0.0000,0.0151
22-Jun-2004,21:05:39,-0.3,0.0,29.1403,0.0000,0.0151
22-Jun-2004,21:05:40,0.4,0.0,29.0360,0.0000,0.0150
22-Jun-2004,21:05:41,1.0,0.0,28.9503,0.0000,0.0149
22-Jun-2004,21:05:42,0.4,0.0,28.8794,0.0000,0.0149
22-Jun-2004,21:05:43,0.4,0.0,28.8169,0.0000,0.0148
22-Jun-2004,21:05:44,0.4,0.0,28.7599,0.0000,0.0148
22-Jun-2004,21:05:45,-0.3,0.0,28.7035,0.0000,0.0147
22-Jun-2004,21:05:46,1.0,0.0,28.6765,0.0000,0.0147
22-Jun-2004,21:05:47,1.0,0.0,28.6689,0.0000,0.0147
22-Jun-2004,21:05:48,-0.3,0.0,28.6533,0.0000,0.0147
22-Jun-2004,21:05:49,-0.3,0.0,28.6321,0.0000,0.0147
22-Jun-2004,21:05:50,1.0,0.0,28.5769,0.0000,0.0146
22-Jun-2004,21:05:51,0.4,0.0,28.5764,0.0000,0.0146
22-Jun-2004,21:05:52,0.4,0.0,28.5918,0.0000,0.0146
22-Jun-2004,21:05:53,0.4,0.0,28.6167,0.0000,0.0146
22-Jun-2004,21:05:54,1.0,0.0,28.6438,0.0000,0.0146
22-Jun-2004,21:05:55,1.0,0.0,28.6582,0.0000,0.0146
22-Jun-2004,21:05:56,-0.3,0.0,28.6848,0.0000,0.0146
22-Jun-2004,21:05:57,0.4,0.0,28.7282,0.0000,0.0146
22-Jun-2004,21:05:58,0.4,0.0,28.7547,0.0000,0.0146
22-Jun-2004,21:05:59,1.0,0.0,28.7546,0.0000,0.0146
22-Jun-2004,21:06:00,1.0,0.0,28.7854,0.0000,0.0146
22-Jun-2004,21:06:01,-0.3,0.0,28.8054,0.0000,0.0146
22-Jun-2004,21:06:02,-0.3,0.0,28.8484,0.0000,0.0146
22-Jun-2004,21:06:03,-0.3,0.0,28.9015,0.0000,0.0146
22-Jun-2004,21:06:04,1.0,0.0,28.9545,0.0000,0.0147
22-Jun-2004,21:06:05,-0.3,0.0,28.9989,0.0000,0.0147
22-Jun-2004,21:06:06,0.4,0.0,29.0363,0.0000,0.0147
22-Jun-2004,21:06:07,0.4,0.0,29.0843,0.0000,0.0147
22-Jun-2004,21:06:08,0.4,0.0,29.1559,0.0000,0.0149
22-Jun-2004,21:06:09,1.0,0.0,29.3340,0.0000,0.0149
22-Jun-2004,21:06:10,1.0,0.0,29.4203,0.0000,0.0150
22-Jun-2004,21:06:11,-0.3,0.0,29.4887,0.0000,0.0150
22-Jun-2004,21:06:12,0.4,0.0,29.5859,0.0000,0.0151
22-Jun-2004,21:06:13,0.4,0.0,29.7293,0.0000,0.0152
22-Jun-2004,21:06:14,0.4,0.0,29.8801,0.0000,0.0152
22-Jun-2004,21:06:15,0.4,0.0,29.9192,0.0000,0.0152
22-Jun-2004,21:06:16,1.0,0.0,30.0135,0.0000,0.0152
22-Jun-2004,21:06:17,-0.3,0.0,30.1580,0.0000,0.0153
22-Jun-2004,21:06:18,0.4,0.0,30.4051,0.0000,0.0153
22-Jun-2004,21:06:19,1.0,0.0,30.5992,0.0000,0.0154
22-Jun-2004,21:06:20,-0.3,0.0,30.6505,0.0000,0.0154
22-Jun-2004,21:06:21,0.4,0.0,30.7113,0.0000,0.0155
22-Jun-2004,21:06:22,-0.3,0.0,30.7468,0.0000,0.0155
22-Jun-2004,21:06:23,-0.3,0.0,30.9505,0.0000,0.0155
22-Jun-2004,21:06:24,1.0,0.0,31.0576,0.0000,0.0155
22-Jun-2004,21:06:25,1.0,0.0,31.0962,0.0000,0.0156
22-Jun-2004,21:06:26,0.4,0.0,31.1440,0.0000,0.0156
22-Jun-2004,21:06:27,-0.3,0.0,31.2918,0.0000,0.0156
22-Jun-2004,21:06:28,0.4,0.0,31.4429,0.0000,0.0157
22-Jun-2004,21:06:29,0.4,0.0,31.4569,0.0000,0.0156
22-Jun-2004,21:06:30,0.4,0.0,31.5444,0.0000,0.0157
22-Jun-2004,21:06:31,0.4,0.0,31.5780,0.0000,0.0157
22-Jun-2004,21:06:32,0.4,0.0,31.6998,0.0000,0.0157
22-Jun-2004,21:06:33,1.0,0.0,31.8490,0.0000,0.0158
22-Jun-2004,21:06:34,0.4,0.0,31.9023,0.0000,0.0158
22-Jun-2004,21:06:35,0.4,0.0,31.8987,0.0000,0.0158
22-Jun-2004,21:06:36,0.4,0.0,31.9785,0.0000,0.0158
22-Jun-2004,21:06:37,-0.3,0.0,32.0033,0.0000,0.0158
22-Jun-2004,21:06:38,1.0,0.0,32.0605,0.0000,0.0158
22-Jun-2004,21:06:39,1.0,0.0,32.1629,0.0000,0.0158
22-Jun-2004,21:06:40,0.4,0.0,32.2298,0.0000,0.0159
22-Jun-2004,21:06:41,1.0,0.0,32.2308,0.0000,0.0159
22-Jun-2004,21:06:42,-0.3,0.0,32.2995,0.0000,0.0159
22-Jun-2004,21:06:43,1.0,0.0,32.3376,0.0000,0.0159
22-Jun-2004,21:06:44,0.4,0.0,32.3892,0.0000,0.0159
22-Jun-2004,21:06:45,0.4,0.0,32.4184,0.0000,0.0159
22-Jun-2004,21:06:46,1.0,0.0,32.4029,0.0000,0.0159
22-Jun-2004,21:06:47,0.4,0.0,32.3453,0.0000,0.0159
22-Jun-2004,21:06:48,-0.3,0.0,32.2700,0.0000,0.0159
22-Jun-2004,21:06:49,0.4,0.0,32.1711,0.0000,0.0158
22-Jun-2004,21:06:50,-0.3,0.0,32.1329,0.0000,0.0158
22-Jun-2004,21:06:51,0.4,0.0,32.0579,0.0000,0.0158
22-Jun-2004,21:06:52,-0.3,0.0,32.0042,0.0000,0.0158
22-Jun-2004,21:06:53,-0.3,0.0,32.0067,0.0000,0.0158
22-Jun-2004,21:06:54,-0.3,0.0,31.9877,0.0000,0.0158
22-Jun-2004,21:06:55,-0.3,0.0,32.0628,0.0000,0.0158
22-Jun-2004,21:06:56,-0.3,0.0,32.1359,0.0000,0.0158
22-Jun-2004,21:06:57,-0.3,0.0,32.2507,0.0000,0.0159
22-Jun-2004,21:06:58,1.0,0.0,32.2446,0.0000,0.0159
22-Jun-2004,21:06:59,1.0,0.0,32.3114,0.0000,0.0160
22-Jun-2004,21:07:00,0.4,0.0,32.4351,0.0000,0.0159
22-Jun-2004,21:07:01,-0.3,0.0,32.5044,0.0000,0.0160
22-Jun-2004,21:07:02,-0.3,0.0,32.4870,0.0000,0.0161
22-Jun-2004,21:07:03,0.4,0.0,32.5447,0.0000,0.0161
22-Jun-2004,21:07:04,0.4,0.0,32.6225,0.0000,0.0160
22-Jun-2004,21:07:05,-0.3,0.0,32.6409,0.0000,0.0160
22-Jun-2004,21:07:06,-0.3,0.0,32.7233,0.0000,0.0161
22-Jun-2004,21:07:07,1.0,0.0,32.6955,0.0000,0.0161
22-Jun-2004,21:07:08,-0.3,0.0,32.7155,0.0000,0.0161
22-Jun-2004,21:07:09,0.4,0.0,32.8028,0.0000,0.0161
22-Jun-2004,21:07:10,1.0,0.0,32.8127,0.0000,0.0161
22-Jun-2004,21:07:11,1.0,0.0,32.7843,0.0000,0.0162
22-Jun-2004,21:07:12,0.4,0.0,32.6957,0.0000,0.0161
22-Jun-2004,21:07:13,0.4,0.0,32.6894,0.0000,0.0160
22-Jun-2004,21:07:14,-0.3,0.0,32.7510,0.0000,0.0161
22-Jun-2004,21:07:15,-0.3,0.0,32.7854,0.0000,0.0162
22-Jun-2004,21:07:16,1.0,0.0,32.6446,0.0000,0.0161
22-Jun-2004,21:07:17,0.4,0.0,32.7155,0.0000,0.0161
22-Jun-2004,21:07:18,-0.3,0.0,32.6643,0.0000,0.0162
22-Jun-2004,21:07:19,-0.3,0.0,32.4448,0.0000,0.0161
22-Jun-2004,21:07:20,0.4,0.0,32.3025,0.0000,0.0161
22-Jun-2004,21:07:21,0.4,0.0,32.3685,0.0000,0.0160
22-Jun-2004,21:07:22,1.0,0.0,32.3371,0.0000,0.0160
22-Jun-2004,21:07:23,-0.3,0.0,32.1659,0.0000,0.0160
22-Jun-2004,21:07:24,1.0,0.0,32.0870,0.0000,0.0159
22-Jun-2004,21:07:25,0.4,0.0,32.0910,0.0000,0.0159
22-Jun-2004,21:07:26,0.4,0.0,32.0335,0.0000,0.0158
22-Jun-2004,21:07:27,0.4,0.0,31.9855,0.0000,0.0158
22-Jun-2004,21:07:28,1.0,0.0,31.9701,0.0000,0.0158
22-Jun-2004,21:07:29,-0.3,0.0,31.9192,0.0000,0.0157
22-Jun-2004,21:07:30,1.0,0.0,31.8635,0.0000,0.0157
22-Jun-2004,21:07:31,0.4,0.0,31.8853,0.0000,0.0157
22-Jun-2004,21:07:32,1.0,0.0,31.8406,0.0000,0.0157
22-Jun-2004,21:07:33,1.0,0.0,31.7711,0.0000,0.0157
22-Jun-2004,21:07:34,-0.3,0.0,31.7405,0.0000,0.0156
22-Jun-2004,21:07:35,-0.3,0.0,31.6938,0.0000,0.0156
22-Jun-2004,21:07:36,0.4,0.0,31.6245,0.0000,0.0156
22-Jun-2004,21:07:37,1.0,0.0,31.6043,0.0000,0.0156
22-Jun-2004,21:07:38,0.4,0.0,31.5952,0.0000,0.0156
22-Jun-2004,21:07:39,-0.3,0.0,31.5950,0.0000,0.0156
22-Jun-2004,21:07:40,0.4,0.0,31.5487,0.0000,0.0156
22-Jun-2004,21:07:41,0.4,0.0,31.5174,0.0000,0.0156
22-Jun-2004,21:07:42,0.4,0.0,31.5437,0.0000,0.0156
22-Jun-2004,21:07:43,0.4,0.0,31.5113,0.0000,0.0156
22-Jun-2004,21:07:44,-0.3,0.0,31.4924,0.0000,0.0156
22-Jun-2004,21:07:45,0.4,0.0,31.4625,0.0000,0.0156
22-Jun-2004,21:07:46,0.4,0.0,31.4382,0.0000,0.0156
22-Jun-2004,21:07:47,0.4,0.0,31.3967,0.0000,0.0156
22-Jun-2004,21:07:48,-0.3,0.0,31.3785,0.0000,0.0155
22-Jun-2004,21:07:49,0.4,0.0,31.3669,0.0000,0.0156
22-Jun-2004,21:07:50,1.0,0.0,31.3352,0.0000,0.0156
22-Jun-2004,21:07:51,0.4,0.0,31.3329,0.0000,0.0156
22-Jun-2004,21:07:52,1.0,0.0,31.2757,0.0000,0.0155
22-Jun-2004,21:07:53,0.4,0.0,31.2745,0.0000,0.0155
22-Jun-2004,21:07:54,1.0,0.0,31.2131,0.0000,0.0156
22-Jun-2004,21:07:55,0.4,0.0,31.2013,0.0000,0.0155
22-Jun-2004,21:07:56,0.4,0.0,31.1797,0.0000,0.0155
22-Jun-2004,21:07:57,0.4,0.0,31.1513,0.0000,0.0155
22-Jun-2004,21:07:58,-0.3,0.0,31.1572,0.0000,0.0155
22-Jun-2004,21:07:59,1.0,0.0,31.1698,0.0000,0.0155
22-Jun-2004,21:08:00,0.4,0.0,31.1787,0.0000,0.0155
22-Jun-2004,21:08:01,-0.3,0.0,31.1719,0.0000,0.0156
22-Jun-2004,21:08:02,0.4,0.0,31.1578,0.0000,0.0156
22-Jun-2004,21:08:03,-0.3,0.0,31.1625,0.0000,0.0155
22-Jun-2004,21:08:04,-0.3,0.0,31.1607,0.0000,0.0155
22-Jun-2004,21:08:05,1.0,0.0,31.1387,0.0000,0.0156
22-Jun-2004,21:08:06,0.4,0.0,31.1575,0.0000,0.0156
22-Jun-2004,21:08:07,0.4,0.0,31.1110,0.0000,0.0156
22-Jun-2004,21:08:08,-0.3,0.0,31.1309,0.0000,0.0155
22-Jun-2004,21:08:09,0.4,0.0,31.1132,0.0000,0.0156
22-Jun-2004,21:08:10,0.4,0.0,31.0997,0.0000,0.0156
22-Jun-2004,21:08:11,-0.3,0.0,31.1071,0.0000,0.0155
22-Jun-2004,21:08:12,-0.3,0.0,31.0680,0.0000,0.0155
22-Jun-2004,21:08:13,0.4,0.0,31.0494,0.0000,0.0156
22-Jun-2004,21:08:14,0.4,0.0,31.0404,0.0000,0.0155
22-Jun-2004,21:08:15,0.4,0.0,31.0241,0.0000,0.0155
22-Jun-2004,21:08:16,1.0,0.0,30.9967,0.0000,0.0155
22-Jun-2004,21:08:17,0.4,0.0,30.9717,0.0000,0.0155
22-Jun-2004,21:08:18,0.4,0.0,30.9703,0.0000,0.0155
22-Jun-2004,21:08:19,-0.3,0.0,30.9524,0.0000,0.0154
22-Jun-2004,21:08:20,0.4,0.0,30.9357,0.0000,0.0154
22-Jun-2004,21:08:21,-0.3,0.0,30.9187,0.0000,0.0155
22-Jun-2004,21:08:22,1.0,0.0,30.9202,0.0000,0.0155
22-Jun-2004,21:08:23,1.0,0.0,30.9550,0.0000,0.0155
22-Jun-2004,21:08:24,0.4,0.0,30.9497,0.0000,0.0154
22-Jun-2004,21:08:25,0.4,0.0,30.9538,0.0000,0.0155
22-Jun-2004,21:08:26,0.4,0.0,30.9537,0.0000,0.0156
22-Jun-2004,21:08:27,0.4,0.0,30.9284,0.0000,0.0155
22-Jun-2004,21:08:28,-0.3,0.0,30.9096,0.0000,0.0155
22-Jun-2004,21:08:29,0.4,0.0,30.8918,0.0000,0.0154
22-Jun-2004,21:08:30,0.4,0.0,30.8722,0.0000,0.0154
22-Jun-2004,21:08:31,0.4,0.0,30.9871,0.0000,0.0154
22-Jun-2004,21:08:32,1.0,0.0,31.1669,0.0000,0.0155
22-Jun-2004,21:08:33,1.0,0.0,31.3196,0.0000,0.0154
22-Jun-2004,21:08:34,1.0,0.0,31.4412,0.0000,0.0155
22-Jun-2004,21:08:35,0.4,0.0,31.5855,0.0000,0.0156
22-Jun-2004,21:08:36,0.4,0.0,31.6700,0.0000,0.0156
22-Jun-2004,21:08:37,0.4,0.0,31.7228,0.0000,0.0155
22-Jun-2004,21:08:38,-0.3,0.0,31.7874,0.0000,0.0156
22-Jun-2004,21:08:39,-0.3,0.0,31.8497,0.0000,0.0156
22-Jun-2004,21:08:40,1.0,0.0,31.9532,0.0000,0.0156
22-Jun-2004,21:08:41,0.4,0.0,32.0115,0.0000,0.0156
22-Jun-2004,21:08:42,1.0,0.0,32.0632,0.0000,0.0156
22-Jun-2004,21:08:43,-0.3,0.0,32.1182,0.0000,0.0156
22-Jun-2004,21:08:44,0.4,0.0,32.1677,0.0000,0.0156
22-Jun-2004,21:08:45,0.4,0.0,32.2153,0.0000,0.0156
22-Jun-2004,21:08:46,0.4,0.0,32.2300,0.0000,0.0156
22-Jun-2004,21:08:47,0.4,0.0,32.1981,0.0000,0.0156
22-Jun-2004,21:08:48,1.0,0.0,32.1566,0.0000,0.0156
22-Jun-2004,21:08:49,0.4,0.0,32.0712,0.0000,0.0156
22-Jun-2004,21:08:50,0.4,0.0,32.0159,0.0000,0.0156
22-Jun-2004,21:08:51,-0.3,0.0,32.0773,0.0000,0.0156
22-Jun-2004,21:08:52,-0.3,0.0,32.0411,0.0000,0.0156
22-Jun-2004,21:08:53,0.4,0.0,31.9167,0.0000,0.0155
22-Jun-2004,21:08:54,0.4,0.0,31.8744,0.0000,0.0155
22-Jun-2004,21:08:55,1.0,0.0,31.7860,0.0000,0.0155
22-Jun-2004,21:08:56,-0.3,0.0,31.6990,0.0000,0.0155
22-Jun-2004,21:08:57,1.0,0.0,31.6210,0.0000,0.0155
22-Jun-2004,21:08:58,0.4,0.0,31.5742,0.0000,0.0155
22-Jun-2004,21:08:59,0.4,0.0,31.5317,0.0000,0.0155
22-Jun-2004,21:09:00,-0.3,0.0,31.4618,0.0000,0.0154
22-Jun-2004,21:09:01,0.4,0.0,31.4213,0.0000,0.0154
22-Jun-2004,21:09:02,-0.3,0.0,31.4156,0.0000,0.0154
22-Jun-2004,21:09:03,0.4,0.0,31.3529,0.0000,0.0154
22-Jun-2004,21:09:04,0.4,0.0,31.2917,0.0000,0.0153
22-Jun-2004,21:09:05,0.4,0.0,31.2747,0.0000,0.0153
22-Jun-2004,21:09:06,0.4,0.0,31.2846,0.0000,0.0154
22-Jun-2004,21:09:07,1.0,0.0,31.2469,0.0000,0.0153
22-Jun-2004,21:09:08,-0.3,0.0,31.2056,0.0000,0.0153
22-Jun-2004,21:09:09,0.4,0.0,31.2127,0.0000,0.0153
22-Jun-2004,21:09:10,-0.3,0.0,31.2022,0.0000,0.0153
22-Jun-2004,21:09:11,1.0,0.0,31.1671,0.0000,0.0153
22-Jun-2004,21:09:12,-0.3,0.0,31.1279,0.0000,0.0153
22-Jun-2004,21:09:13,0.4,0.0,31.1647,0.0000,0.0153
22-Jun-2004,21:09:14,0.4,0.0,31.1082,0.0000,0.0153
22-Jun-2004,21:09:15,-0.3,0.0,31.0720,0.0000,0.0153
22-Jun-2004,21:09:16,0.4,0.0,31.0368,0.0000,0.0153
22-Jun-2004,21:09:17,-0.3,0.0,31.0438,0.0000,0.0153
22-Jun-2004,21:09:18,0.4,0.0,31.0455,0.0000,0.0153
22-Jun-2004,21:09:19,-0.3,0.0,31.0151,0.0000,0.0153
22-Jun-2004,21:09:20,0.4,0.0,31.0194,0.0000,0.0153
22-Jun-2004,21:09:21,0.4,0.0,31.0224,0.0000,0.0153
22-Jun-2004,21:09:22,0.4,0.0,31.0095,0.0000,0.0153
22-Jun-2004,21:09:23,-0.3,0.0,30.9905,0.0000,0.0153
22-Jun-2004,21:09:24,0.4,0.0,30.9748,0.0000,0.0153
22-Jun-2004,21:09:25,0.4,0.0,30.9558,0.0000,0.0154
22-Jun-2004,21:09:26,0.4,0.0,30.9461,0.0000,0.0153
22-Jun-2004,21:09:27,0.4,0.0,30.9712,0.0000,0.0153
22-Jun-2004,21:09:28,-0.3,0.0,30.9569,0.0000,0.0153
22-Jun-2004,21:09:29,0.4,0.0,30.9387,0.0000,0.0153
22-Jun-2004,21:09:30,1.0,0.0,30.9656,0.0000,0.0153
22-Jun-2004,21:09:31,-0.3,0.0,30.9710,0.0000,0.0153
22-Jun-2004,21:09:32,-0.3,0.0,30.9841,0.0000,0.0153
22-Jun-2004,21:09:33,0.4,0.0,30.9640,0.0000,0.0153
22-Jun-2004,21:09:34,-0.3,0.0,30.9504,0.0000,0.0153
22-Jun-2004,21:09:35,-0.3,0.0,30.9694,0.0000,0.0153
22-Jun-2004,21:09:36,1.0,0.0,30.9934,0.0000,0.0153
22-Jun-2004,21:09:37,-0.3,0.0,30.9826,0.0000,0.0154
22-Jun-2004,21:09:38,0.4,0.0,30.9389,0.0000,0.0153
22-Jun-2004,21:09:39,1.0,0.0,30.9718,0.0000,0.0153
22-Jun-2004,21:09:40,1.0,0.0,30.9804,0.0000,0.0153
22-Jun-2004,21:09:41,0.4,0.0,31.0070,0.0000,0.0153
22-Jun-2004,21:09:42,-0.3,0.0,30.9877,0.0000,0.0153
22-Jun-2004,21:09:43,-0.3,0.0,30.9735,0.0000,0.0153
22-Jun-2004,21:09:44,1.0,0.0,31.0178,0.0000,0.0153
22-Jun-2004,21:09:45,0.4,0.0,31.0275,0.0000,0.0153
22-Jun-2004,21:09:46,1.0,0.0,31.0159,0.0000,0.0153
22-Jun-2004,21:09:47,-0.3,0.0,31.0586,0.0000,0.0153
22-Jun-2004,21:09:48,0.4,0.0,31.0474,0.0000,0.0153
22-Jun-2004,21:09:49,0.4,0.0,30.9911,0.0000,0.0153
22-Jun-2004,21:09:50,0.4,0.0,30.9988,0.0000,0.0153
22-Jun-2004,21:09:51,-0.3,0.0,31.0078,0.0000,0.0153
22-Jun-2004,21:09:52,0.4,0.0,31.0176,0.0000,0.0153
22-Jun-2004,21:09:53,1.0,0.0,30.9904,0.0000,0.0153
22-Jun-2004,21:09:54,0.4,0.0,30.9568,0.0000,0.0153
22-Jun-2004,21:09:55,0.4,0.0,30.9592,0.0000,0.0152
22-Jun-2004,21:09:56,1.0,0.0,30.9521,0.0000,0.0153
22-Jun-2004,21:09:57,0.4,0.0,30.9699,0.0000,0.0153
22-Jun-2004,21:09:58,0.4,0.0,30.9703,0.0000,0.0153
22-Jun-2004,21:09:59,-0.3,0.0,30.9535,0.0000,0.0153
22-Jun-2004,21:10:00,0.4,0.0,30.9276,0.0000,0.0153
22-Jun-2004,21:10:01,-0.3,0.0,30.9828,0.0000,0.0153
22-Jun-2004,21:10:02,0.4,0.0,30.9936,0.0000,0.0153
22-Jun-2004,21:10:03,-0.3,0.0,30.9488,0.0000,0.0153
22-Jun-2004,21:10:04,0.4,0.0,30.9552,0.0000,0.0153
22-Jun-2004,21:10:05,-0.3,0.0,30.9675,0.0000,0.0153
22-Jun-2004,21:10:06,0.4,0.0,30.9624,0.0000,0.0152
22-Jun-2004,21:10:07,1.0,0.0,30.9457,0.0000,0.0152
22-Jun-2004,21:10:08,0.4,0.0,30.9510,0.0000,0.0152
22-Jun-2004,21:10:09,-0.3,0.0,30.9325,0.0000,0.0152
22-Jun-2004,21:10:10,0.4,0.0,30.8931,0.0000,0.0152
22-Jun-2004,21:10:11,0.4,0.0,30.8873,0.0000,0.0152
22-Jun-2004,21:10:12,-0.3,0.0,30.8980,0.0000,0.0152
22-Jun-2004,21:10:13,0.4,0.0,30.8800,0.0000,0.0152
22-Jun-2004,21:10:14,-0.3,0.0,30.8911,0.0000,0.0152
22-Jun-2004,21:10:15,1.0,0.0,30.8886,0.0000,0.0152
22-Jun-2004,21:10:16,1.0,0.0,30.8601,0.0000,0.0152
22-Jun-2004,21:10:17,-0.3,0.0,30.8853,0.0000,0.0152
22-Jun-2004,21:10:18,0.4,0.0,30.9145,0.0000,0.0152
22-Jun-2004,21:10:19,0.4,0.0,30.8963,0.0000,0.0153
22-Jun-2004,21:10:20,-0.3,0.0,30.8634,0.0000,0.0153
22-Jun-2004,21:10:21,1.0,0.0,30.8377,0.0000,0.0153
22-Jun-2004,21:10:22,0.4,0.0,30.8435,0.0000,0.0153
22-Jun-2004,21:10:23,0.4,0.0,30.8387,0.0000,0.0153
22-Jun-2004,21:10:24,0.4,0.0,30.8457,0.0000,0.0153
22-Jun-2004,21:10:25,1.0,0.0,30.8415,0.0000,0.0153
22-Jun-2004,21:10:26,0.4,0.0,30.8435,0.0000,0.0153
22-Jun-2004,21:10:27,1.0,0.0,30.8499,0.0000,0.0153
22-Jun-2004,21:10:28,0.4,0.0,30.8417,0.0000,0.0152
22-Jun-2004,21:10:29,-0.3,0.0,30.8447,0.0000,0.0152
22-Jun-2004,21:10:30,0.4,0.0,30.8402,0.0000,0.0153
22-Jun-2004,21:10:31,0.4,0.0,30.8302,0.0000,0.0153
22-Jun-2004,21:10:32,1.0,0.0,30.8321,0.0000,0.0152
22-Jun-2004,21:10:33,-0.3,0.0,30.8382,0.0000,0.0152
22-Jun-2004,21:10:34,0.4,0.0,30.8555,0.0000,0.0153
22-Jun-2004,21:10:35,0.4,0.0,30.8322,0.0000,0.0153
22-Jun-2004,21:10:36,1.0,0.0,30.8134,0.0000,0.0152
22-Jun-2004,21:10:37,0.4,0.0,30.8066,0.0000,0.0152
22-Jun-2004,21:10:38,1.0,0.0,30.8212,0.0000,0.0152
22-Jun-2004,21:10:39,0.4,0.0,30.8402,0.0000,0.0153
22-Jun-2004,21:10:40,0.4,0.0,30.8328,0.0000,0.0153
22-Jun-2004,21:10:41,0.4,0.0,30.8646,0.0000,0.0152
22-Jun-2004,21:10:42,-0.3,0.0,30.8470,0.0000,0.0152
22-Jun-2004,21:10:43,0.4,0.0,30.8395,0.0000,0.0152
22-Jun-2004,21:10:44,0.4,0.0,30.8424,0.0000,0.0152
22-Jun-2004,21:10:45,0.4,0.0,30.8404,0.0000,0.0152
22-Jun-2004,21:10:46,0.4,0.0,30.8480,0.0000,0.0152
22-Jun-2004,21:10:47,-0.3,0.0,30.8565,0.0000,0.0151
22-Jun-2004,21:10:48,-0.3,0.0,30.8531,0.0000,0.0152
22-Jun-2004,21:10:49,0.4,0.0,30.8552,0.0000,0.0151
22-Jun-2004,21:10:50,0.4,0.0,30.8832,0.0000,0.0151
22-Jun-2004,21:10:51,1.0,0.0,30.8629,0.0000,0.0151
22-Jun-2004,21:10:52,0.4,0.0,30.8807,0.0000,0.0151
22-Jun-2004,21:10:53,0.4,0.0,30.8676,0.0000,0.0151
22-Jun-2004,21:10:54,0.4,0.0,30.8490,0.0000,0.0151
22-Jun-2004,21:10:55,0.4,0.0,30.8548,0.0000,0.0151
22-Jun-2004,21:10:56,-0.3,0.0,30.8373,0.0000,0.0151
22-Jun-2004,21:10:57,0.4,0.0,30.8501,0.0000,0.0151
22-Jun-2004,21:10:58,0.4,0.0,30.8747,0.0000,0.0151
22-Jun-2004,21:10:59,-0.3,0.0,30.9096,0.0000,0.0151
22-Jun-2004,21:11:00,-0.3,0.0,30.9243,0.0000,0.0151
22-Jun-2004,21:11:01,-0.3,0.0,30.9217,0.0000,0.0152
22-Jun-2004,21:11:02,0.4,0.0,30.9125,0.0000,0.0151
22-Jun-2004,21:11:03,1.0,0.0,30.9121,0.0000,0.0151
22-Jun-2004,21:11:04,1.0,0.0,30.8973,0.0000,0.0151
22-Jun-2004,21:11:05,0.4,0.0,30.8864,0.0000,0.0152
22-Jun-2004,21:11:06,-0.3,0.0,30.8822,0.0000,0.0151
22-Jun-2004,21:11:07,0.4,0.0,30.9010,0.0000,0.0151
22-Jun-2004,21:11:08,1.0,0.0,30.9095,0.0000,0.0151
22-Jun-2004,21:11:09,0.4,0.0,30.9322,0.0000,0.0152
22-Jun-2004,21:11:10,1.0,0.0,30.9202,0.0000,0.0152
22-Jun-2004,21:11:11,0.4,0.0,30.9725,0.0000,0.0152
22-Jun-2004,21:11:12,0.4,0.0,31.0021,0.0000,0.0152
22-Jun-2004,21:11:13,0.4,0.0,30.9937,0.0000,0.0152
22-Jun-2004,21:11:14,-0.3,0.0,31.0329,0.0000,0.0152
22-Jun-2004,21:11:15,0.4,0.0,31.0286,0.0000,0.0152
22-Jun-2004,21:11:16,-0.3,0.0,31.0193,0.0000,0.0152
22-Jun-2004,21:11:17,-0.3,0.0,30.9975,0.0000,0.0152
22-Jun-2004,21:11:18,0.4,0.0,31.0138,0.0000,0.0152
22-Jun-2004,21:11:19,0.4,0.0,31.0397,0.0000,0.0152
22-Jun-2004,21:11:20,1.0,0.0,31.0125,0.0000,0.0152
22-Jun-2004,21:11:21,1.0,0.0,31.0146,0.0000,0.0151
22-Jun-2004,21:11:22,-0.3,0.0,31.0239,0.0000,0.0151
22-Jun-2004,21:11:23,-0.3,0.0,31.0289,0.0000,0.0151
22-Jun-2004,21:11:24,0.4,0.0,31.0853,0.0000,0.0151
22-Jun-2004,21:11:25,0.4,0.0,31.1535,0.0000,0.0151
22-Jun-2004,21:11:26,0.4,0.0,31.2784,0.0000,0.0152
22-Jun-2004,21:11:27,0.4,0.0,31.4210,0.0000,0.0152
22-Jun-2004,21:11:28,0.4,0.0,31.5512,0.0000,0.0152
22-Jun-2004,21:11:29,0.4,0.0,31.6478,0.0000,0.0153
22-Jun-2004,21:11:30,0.4,0.0,31.7301,0.0000,0.0153
22-Jun-2004,21:11:31,1.0,0.0,31.8257,0.0000,0.0153
22-Jun-2004,21:11:32,0.4,0.0,31.9298,0.0000,0.0153
22-Jun-2004,21:11:33,0.4,0.0,32.0318,0.0000,0.0153
22-Jun-2004,21:11:34,0.4,0.0,32.0937,0.0000,0.0154
22-Jun-2004,21:11:35,-0.3,0.0,32.1816,0.0000,0.0154
22-Jun-2004,21:11:36,-0.3,0.0,32.2781,0.0000,0.0154
22-Jun-2004,21:11:37,-0.3,0.0,32.3557,0.0000,0.0155
22-Jun-2004,21:11:38,0.4,0.0,32.4292,0.0000,0.0155
22-Jun-2004,21:11:39,0.4,0.0,32.5112,0.0000,0.0155
22-Jun-2004,21:11:40,0.4,0.0,32.5574,0.0000,0.0155
22-Jun-2004,21:11:41,-0.3,0.0,32.6749,0.0000,0.0156
22-Jun-2004,21:11:42,-0.3,0.0,32.7094,0.0000,0.0156
22-Jun-2004,21:11:43,-0.3,0.0,32.6968,0.0000,0.0156
22-Jun-2004,21:11:44,0.4,0.0,32.7627,0.0000,0.0155
22-Jun-2004,21:11:45,0.4,0.0,32.8577,0.0000,0.0156
22-Jun-2004,21:11:46,0.4,0.0,32.9044,0.0000,0.0156
22-Jun-2004,21:11:47,0.4,0.0,32.9153,0.0000,0.0156
22-Jun-2004,21:11:48,0.4,0.0,32.9659,0.0000,0.0156
22-Jun-2004,21:11:49,0.4,0.0,32.9763,0.0000,0.0156
22-Jun-2004,21:11:50,-0.3,0.0,33.0357,0.0000,0.0156
22-Jun-2004,21:11:51,0.4,0.0,33.0361,0.0000,0.0157
22-Jun-2004,21:11:52,1.0,0.0,33.0870,0.0000,0.0157
22-Jun-2004,21:11:53,-0.3,0.0,33.1759,0.0000,0.0157
22-Jun-2004,21:11:54,1.0,0.0,33.1960,0.0000,0.0157
22-Jun-2004,21:11:55,0.4,0.0,33.3098,0.0000,0.0157
22-Jun-2004,21:11:56,1.0,0.0,33.3981,0.0000,0.0158
22-Jun-2004,21:11:57,0.4,0.0,33.3503,0.0000,0.0157
22-Jun-2004,21:11:58,-0.3,0.0,33.3945,0.0000,0.0157
22-Jun-2004,21:11:59,0.4,0.0,33.4069,0.0000,0.0157
22-Jun-2004,21:12:00,0.4,0.0,33.3930,0.0000,0.0157
22-Jun-2004,21:12:01,0.4,0.0,33.3863,0.0000,0.0157
22-Jun-2004,21:12:02,0.4,0.0,33.3820,0.0000,0.0157
22-Jun-2004,21:12:03,-0.3,0.0,33.3315,0.0000,0.0157
22-Jun-2004,21:12:04,0.4,0.0,33.3627,0.0000,0.0157
22-Jun-2004,21:12:05,1.0,0.0,33.3762,0.0000,0.0157
22-Jun-2004,21:12:06,1.0,0.0,33.4092,0.0000,0.0157
22-Jun-2004,21:12:07,-0.3,0.0,33.3388,0.0000,0.0157
22-Jun-2004,21:12:08,0.4,0.0,33.2434,0.0000,0.0156
22-Jun-2004,21:12:09,0.4,0.0,33.1169,0.0000,0.0156
22-Jun-2004,21:12:10,-0.3,0.0,32.9744,0.0000,0.0156
22-Jun-2004,21:12:11,0.4,0.0,32.8649,0.0000,0.0156
22-Jun-2004,21:12:12,0.4,0.0,32.9136,0.0000,0.0156
22-Jun-2004,21:12:13,0.4,0.0,32.7881,0.0000,0.0156
22-Jun-2004,21:12:14,1.0,0.0,32.6184,0.0000,0.0155
22-Jun-2004,21:12:15,-0.3,0.0,32.5299,0.0000,0.0155
22-Jun-2004,21:12:16,0.4,0.0,32.5645,0.0000,0.0155
22-Jun-2004,21:12:17,0.4,0.0,32.5402,0.0000,0.0155
22-Jun-2004,21:12:18,0.4,0.0,32.5403,0.0000,0.0155
22-Jun-2004,21:12:19,1.0,0.0,32.5615,0.0000,0.0155
22-Jun-2004,21:12:20,0.4,0.0,32.6175,0.0000,0.0155
22-Jun-2004,21:12:21,1.0,0.0,32.7668,0.0000,0.0155
22-Jun-2004,21:12:22,0.4,0.0,32.7994,0.0000,0.0155
22-Jun-2004,21:12:23,-0.3,0.0,32.8353,0.0000,0.0156
22-Jun-2004,21:12:24,0.4,0.0,32.8847,0.0000,0.0156
22-Jun-2004,21:12:25,0.4,0.0,32.9935,0.0000,0.0156
22-Jun-2004,21:12:26,0.4,0.0,33.0422,0.0000,0.0156
22-Jun-2004,21:12:27,0.4,0.0,33.0851,0.0000,0.0158
22-Jun-2004,21:12:28,0.4,0.0,33.1554,0.0000,0.0905
22-Jun-2004,21:12:29,0.4,0.0,33.1247,0.0000,0.1143
22-Jun-2004,21:12:30,-0.3,0.0,33.0295,0.0000,0.1311
22-Jun-2004,21:12:31,-0.3,0.0,32.9803,0.0000,0.1991
22-Jun-2004,21:12:32,0.4,0.0,32.9638,0.0000,0.2193
22-Jun-2004,21:12:33,0.4,0.0,32.9168,0.0000,0.2987
22-Jun-2004,21:12:34,0.4,0.0,32.7821,0.0000,0.3070
22-Jun-2004,21:12:35,-0.3,0.0,32.5566,0.0000,0.2946